Chie Maru No.10 — JD2376 — position and weather

sailwx.info

Track history (hours):
 
Tides and Currents Weather Stations Pressure Air Temp Water Temp Dewpoint Dewpoint Depression Visibility Wind Speed Wind Dir Waves Ship Positions

Chie Maru No.10

Last reported at 2016-Apr-30 10:33 UTC. Time now 2016-Apr-30 11:19 UTC.
Position N 34°38' E 135°08'.

Length 72 m; draft 5 m.

Type: Ship. MMSI: 431000147.

Date/timePositionNaut miles runAvg speedWind from/ knotsBaromVisibWave heightAir tempDewpointWater temp
2016-Apr-30 10:33N 34°38' E 135°08'0 0.1
2016-Apr-30 09:28N 34°38' E 135°08'8 8.6
2016-Apr-30 08:32N 34°37' E 134°59'237 7.8
2016-Apr-29 02:10N 33°48' E 130°18'711.5
2016-Apr-29 01:32N 33°41' E 130°16'5 5.4
2016-Apr-29 00:33N 33°37' E 130°21'0 0.0
2016-Apr-28 23:12N 33°37' E 130°21'0 0.0
2016-Apr-28 22:31N 33°37' E 130°21'0 0.0
2016-Apr-28 21:18N 33°37' E 130°21'0 0.1
2016-Apr-28 20:33N 33°37' E 130°21'0 0.0
2016-Apr-28 19:31N 33°37' E 130°21'0 0.0
2016-Apr-28 18:31N 33°37' E 130°21'0 0.0
2016-Apr-28 17:30N 33°37' E 130°21'0 0.0
2016-Apr-28 16:33N 33°37' E 130°21'0 0.0
2016-Apr-28 15:27N 33°37' E 130°21'0 0.1
2016-Apr-28 14:28N 33°37' E 130°21'0 0.0
2016-Apr-28 13:28N 33°37' E 130°21'0 0.0
2016-Apr-28 12:34N 33°37' E 130°21'0 0.0
2016-Apr-28 11:33N 33°37' E 130°21'0 0.0
2016-Apr-28 10:34N 33°37' E 130°21'0 0.0
2016-Apr-28 09:25N 33°37' E 130°21'0 0.0
2016-Apr-28 08:19N 33°37' E 130°21'0 0.0
2016-Apr-28 07:19N 33°37' E 130°21'0 0.0
2016-Apr-28 06:25N 33°37' E 130°21'2 2.5
2016-Apr-28 05:33N 33°36' E 130°23'0 0.0
2016-Apr-28 04:33N 33°36' E 130°23'0 0.0
2016-Apr-28 03:32N 33°36' E 130°23'0 0.0
2016-Apr-28 02:32N 33°36' E 130°23'0 0.0
2016-Apr-28 01:33N 33°36' E 130°23'5 5.2
2016-Apr-28 00:32N 33°39' E 130°18'9 8.6
2016-Apr-27 23:32N 33°44' E 130°09'8 8.4
2016-Apr-27 22:33N 33°40' E 130°00'  
2016-Apr-25 02:32N 33°40' E 129°51'1111.5
2016-Apr-25 01:33N 33°46' E 130°03'  
Track history (hours):
 
Tides and Currents Weather Stations Pressure Air Temp Water Temp Dewpoint Dewpoint Depression Visibility Wind Speed Wind Dir Waves Ship Positions

Chie Maru No.10

Last reported at 2016-Apr-30 10:33 UTC. Time now 2016-Apr-30 11:19 UTC.
Position N 34°38' E 135°08'.

Length 72 m; draft 5 m.

Type: Ship. MMSI: 431000147.

Date/timePositionNaut miles runAvg speedWind from/ knotsBaromVisibWave heightAir tempDewpointWater temp
2016-Apr-30 10:33N 34°38' E 135°08'0 0.1
2016-Apr-30 09:28N 34°38' E 135°08'8 8.6
2016-Apr-30 08:32N 34°37' E 134°59'237 7.8
2016-Apr-29 02:10N 33°48' E 130°18'711.5
2016-Apr-29 01:32N 33°41' E 130°16'5 5.4
2016-Apr-29 00:33N 33°37' E 130°21'0 0.0
2016-Apr-28 23:12N 33°37' E 130°21'0 0.0
2016-Apr-28 22:31N 33°37' E 130°21'0 0.0
2016-Apr-28 21:18N 33°37' E 130°21'0 0.1
2016-Apr-28 20:33N 33°37' E 130°21'0 0.0
2016-Apr-28 19:31N 33°37' E 130°21'0 0.0
2016-Apr-28 18:31N 33°37' E 130°21'0 0.0
2016-Apr-28 17:30N 33°37' E 130°21'0 0.0
2016-Apr-28 16:33N 33°37' E 130°21'0 0.0
2016-Apr-28 15:27N 33°37' E 130°21'0 0.1
2016-Apr-28 14:28N 33°37' E 130°21'0 0.0
2016-Apr-28 13:28N 33°37' E 130°21'0 0.0
2016-Apr-28 12:34N 33°37' E 130°21'0 0.0
2016-Apr-28 11:33N 33°37' E 130°21'0 0.0
2016-Apr-28 10:34N 33°37' E 130°21'0 0.0
2016-Apr-28 09:25N 33°37' E 130°21'0 0.0
2016-Apr-28 08:19N 33°37' E 130°21'0 0.0
2016-Apr-28 07:19N 33°37' E 130°21'0 0.0
2016-Apr-28 06:25N 33°37' E 130°21'2 2.5
2016-Apr-28 05:33N 33°36' E 130°23'0 0.0
2016-Apr-28 04:33N 33°36' E 130°23'0 0.0
2016-Apr-28 03:32N 33°36' E 130°23'0 0.0
2016-Apr-28 02:32N 33°36' E 130°23'0 0.0
2016-Apr-28 01:33N 33°36' E 130°23'5 5.2
2016-Apr-28 00:32N 33°39' E 130°18'9 8.6
2016-Apr-27 23:32N 33°44' E 130°09'8 8.4
2016-Apr-27 22:33N 33°40' E 130°00'  
2016-Apr-25 02:32N 33°40' E 129°51'1111.5
2016-Apr-25 01:33N 33°46' E 130°03'  

Dump ship's entire track history